Weather History for KDBN - March, 2014

Change the Weather History Date:

Thursday, March 6, 2014

  Actual Average Record
Temperature  
Mean Temperature 38 °F -  
Max Temperature 42 °F 70 °F 89 °F (1961)
Min Temperature 35 °F 43 °F 19 °F (1960)
Degree Days  
Heating Degree Days 26    
Moisture  
Dew Point 37 °F    
Average Humidity 93    
Maximum Humidity 100    
Minimum Humidity 81    
Precipitation  
Precipitation 0.00 in - - ()
Sea Level Pressure  
Sea Level Pressure 30.07 in    
Wind  
Wind Speed 9 mph (NE)    
Max Wind Speed 17 mph    
Max Gust Speed 23 mph    
Visibility 7 miles    
Events Rain    
Averages and records for this station are not official NWS values.
T = Trace of Precipitation, MM = Missing Value Source: NWS Daily Summary

Daily Weather History Graph

Daily Weather History Graph

Search for Another Location

Airport or City:

Trip Planner

Search our weather history database for the weather conditions in past years. The results will help you decide how hot, cold, wet, or windy it might be!

Date:

Astronomy

Mar. 06, 2014 Rise Set
Actual Time 6:53 AM EST 6:33 PM EST
Civil Twilight 6:28 AM EST 6:57 PM EST
Nautical Twilight 6:00 AM EST 7:26 PM EST
Astronomical Twilight 5:32 AM EST 7:54 PM EST
Moon 10:19 AM EST (3/6) No Moon Set
Length of Visible Light 12h 28m
Length of Day
11h 39m
Waxing Crescent, 32% of the Moon is Illuminated
Mar 6
Waxing Crescent
Mar 8
First Quarter
Mar 16
Full
Mar 23
Last Quarter
Mar 30
New

Hourly Weather History & Observations

Time (EST) Temp. Windchill Dew Point Humidity Pressure Visibility Wind Dir Wind Speed Gust Speed Precip Events Conditions
12:15 AM 42.8 °F 38.6 °F 41.0 °F 93% 30.17 in 10.0 mi East 6.9 mph - N/A   Overcast
12:35 AM 42.8 °F 38.6 °F 42.8 °F 100% 30.18 in 10.0 mi East 6.9 mph - N/A   Overcast
12:55 AM 42.8 °F 38.6 °F 42.8 °F 100% 30.17 in 10.0 mi East 6.9 mph - N/A   Overcast
1:15 AM 42.8 °F 38.6 °F 42.8 °F 100% 30.16 in 10.0 mi East 6.9 mph - N/A   Overcast
1:35 AM 42.8 °F 38.0 °F 42.8 °F 100% 30.15 in 10.0 mi ENE 8.1 mph - N/A   Overcast
1:55 AM 42.8 °F 38.0 °F 41.0 °F 93% 30.14 in 10.0 mi ENE 8.1 mph - N/A   Overcast
2:15 AM 42.8 °F 38.0 °F 41.0 °F 93% 30.14 in 10.0 mi East 8.1 mph - N/A   Overcast
2:35 AM 42.8 °F 37.0 °F 41.0 °F 93% 30.13 in 10.0 mi East 10.4 mph - N/A   Overcast
2:55 AM 42.8 °F 38.6 °F 41.0 °F 93% 30.14 in 10.0 mi East 6.9 mph - N/A   Mostly Cloudy
3:20 AM 41.0 °F 38.0 °F 41.0 °F 100% 30.13 in 10.0 mi East 4.6 mph - N/A   Mostly Cloudy
3:35 AM 42.8 °F 39.3 °F 41.0 °F 93% 30.12 in 10.0 mi ENE 5.8 mph - N/A   Mostly Cloudy
3:55 AM 41.0 °F 38.0 °F 41.0 °F 100% 30.12 in 10.0 mi ENE 4.6 mph - N/A   Mostly Cloudy
4:15 AM 42.8 °F - 41.0 °F 93% 30.12 in 10.0 mi Calm Calm - N/A   Overcast
4:35 AM 42.8 °F 41.1 °F 41.0 °F 93% 30.12 in 10.0 mi ENE 3.5 mph - N/A   Overcast
4:55 AM 42.8 °F 39.3 °F 41.0 °F 93% 30.11 in 10.0 mi ENE 5.8 mph - N/A   Overcast
5:15 AM 42.8 °F 36.6 °F 41.0 °F 93% 30.12 in 10.0 mi ENE 11.5 mph 17.3 mph N/A   Overcast
5:35 AM 42.8 °F 36.2 °F 39.2 °F 87% 30.12 in 10.0 mi ENE 12.7 mph 17.3 mph N/A   Overcast
5:55 AM 42.8 °F 36.2 °F 39.2 °F 87% 30.12 in 10.0 mi ENE 12.7 mph - N/A   Overcast
6:15 AM 42.8 °F 35.1 °F 39.2 °F 87% 30.13 in 10.0 mi ENE 16.1 mph 23.0 mph N/A   Overcast
6:35 AM 42.8 °F 35.8 °F 37.4 °F 81% 30.13 in 10.0 mi NE 13.8 mph 18.4 mph N/A   Overcast
6:55 AM 42.8 °F 36.6 °F 37.4 °F 81% 30.13 in 10.0 mi ENE 11.5 mph - N/A   Overcast
7:15 AM 42.8 °F 36.2 °F 37.4 °F 81% 30.13 in 10.0 mi ENE 12.7 mph 19.6 mph N/A   Overcast
7:35 AM 42.8 °F 37.5 °F 37.4 °F 81% 30.14 in 10.0 mi ENE 9.2 mph 19.6 mph N/A   Overcast
7:55 AM 41.0 °F 32.8 °F 37.4 °F 87% 30.14 in 10.0 mi NE 16.1 mph 19.6 mph N/A   Light Drizzle
8:15 AM 41.0 °F 34.3 °F 35.6 °F 81% 30.14 in 10.0 mi NE 11.5 mph 17.3 mph N/A   Overcast
8:35 AM 41.0 °F 33.9 °F 35.6 °F 81% 30.15 in 10.0 mi NE 12.7 mph 19.6 mph N/A   Overcast
8:55 AM 41.0 °F 35.2 °F 35.6 °F 81% 30.16 in 10.0 mi NE 9.2 mph 17.3 mph N/A Rain Light Rain
9:15 AM 41.0 °F 33.5 °F 35.6 °F 81% 30.17 in 10.0 mi NE 13.8 mph 18.4 mph N/A Rain Light Rain
9:35 AM 41.0 °F 34.7 °F 37.4 °F 87% 30.16 in 10.0 mi NE 10.4 mph 19.6 mph N/A Rain Light Rain
9:55 AM 39.2 °F 32.5 °F 37.4 °F 93% 30.16 in 5.0 mi NE 10.4 mph 18.4 mph N/A Rain Rain
10:15 AM 39.2 °F 31.6 °F 37.4 °F 93% 30.17 in 7.0 mi NE 12.7 mph 17.3 mph N/A Rain Light Rain
10:35 AM 37.4 °F 29.8 °F 35.6 °F 93% 30.16 in 7.0 mi NE 11.5 mph - N/A Rain Light Rain
10:55 AM 37.4 °F 28.5 °F 35.6 °F 93% 30.15 in 7.0 mi NE 15.0 mph 23.0 mph N/A Rain Light Rain
11:15 AM 37.4 °F 29.3 °F 35.6 °F 93% 30.13 in 7.0 mi ENE 12.7 mph 18.4 mph N/A Rain Light Rain
11:35 AM 37.4 °F 29.8 °F 35.6 °F 93% 30.12 in 7.0 mi NE 11.5 mph 19.6 mph N/A Rain Light Rain
11:55 AM 37.4 °F 29.8 °F 35.6 °F 93% 30.12 in 5.0 mi ENE 11.5 mph 18.4 mph N/A Rain Light Rain
12:15 PM 35.6 °F 27.1 °F 35.6 °F 100% 30.10 in 10.0 mi NE 12.7 mph 18.4 mph N/A Rain Light Rain
12:35 PM 37.4 °F 29.3 °F 35.6 °F 93% 30.09 in 7.0 mi ENE 12.7 mph 18.4 mph N/A Rain Light Rain
12:55 PM 37.4 °F 28.5 °F 35.6 °F 93% 30.06 in 7.0 mi ENE 15.0 mph 20.7 mph N/A Rain Light Rain
1:15 PM 37.4 °F 27.8 °F 35.6 °F 93% 30.05 in 7.0 mi ENE 17.3 mph 23.0 mph N/A Rain Light Rain
1:35 PM 37.4 °F 30.3 °F 35.6 °F 93% 30.04 in 4.0 mi ENE 10.4 mph - N/A Rain Light Rain
1:55 PM 37.4 °F 28.2 °F 35.6 °F 93% 30.03 in 5.0 mi ENE 16.1 mph 20.7 mph N/A Rain Rain
2:15 PM 37.4 °F 30.8 °F 35.6 °F 93% 30.03 in 10.0 mi ENE 9.2 mph 20.7 mph N/A   Overcast
2:35 PM 37.4 °F 30.3 °F 35.6 °F 93% 30.02 in 2.0 mi NE 10.4 mph - N/A Rain Rain
2:55 PM 37.4 °F 29.3 °F 35.6 °F 93% 30.01 in 2.5 mi NE 12.7 mph 16.1 mph N/A Rain Light Rain
3:15 PM 37.4 °F 29.3 °F 35.6 °F 93% 30.01 in 5.0 mi ENE 12.7 mph 17.3 mph N/A Rain Rain
3:35 PM 37.4 °F 31.4 °F 35.6 °F 93% 30.02 in 3.0 mi NE 8.1 mph - N/A   Heavy Drizzle
3:55 PM 37.4 °F 30.8 °F 37.4 °F 100% 30.01 in 4.0 mi NE 9.2 mph - N/A   Drizzle
4:15 PM 37.4 °F 31.4 °F 37.4 °F 100% 30.00 in 2.0 mi NE 8.1 mph - N/A Rain Heavy Rain
4:35 PM 37.4 °F 30.8 °F 37.4 °F 100% 29.99 in 1.2 mi NNE 9.2 mph - N/A Rain Light Rain
4:55 PM 37.4 °F 29.3 °F 35.6 °F 93% 30.00 in 4.0 mi NE 12.7 mph 17.3 mph N/A Rain Rain
5:15 PM 37.4 °F 32.8 °F 35.6 °F 93% 30.01 in 5.0 mi NNE 5.8 mph - N/A   Drizzle
5:35 PM 37.4 °F 30.3 °F 35.6 °F 93% 30.01 in 4.0 mi NE 10.4 mph - N/A Rain Light Rain
5:55 PM 37.4 °F 32.1 °F 35.6 °F 93% 30.00 in 2.5 mi NNE 6.9 mph - N/A Rain Heavy Rain
6:15 PM 37.4 °F 30.3 °F 37.4 °F 100% 30.00 in 4.0 mi NE 10.4 mph - N/A Rain Light Rain
6:35 PM 37.4 °F 29.8 °F 35.6 °F 93% 30.01 in 4.0 mi NNE 11.5 mph - N/A Rain Light Rain
6:55 PM 37.4 °F 29.3 °F 35.6 °F 93% 30.00 in 7.0 mi NE 12.7 mph 16.1 mph N/A Rain Light Rain
7:15 PM 35.6 °F 28.0 °F 35.6 °F 100% 30.00 in 7.0 mi NE 10.4 mph 17.3 mph N/A Rain Light Rain
7:35 PM 35.6 °F 25.5 °F 35.6 °F 100% 29.99 in 7.0 mi NE 17.3 mph 21.9 mph N/A   Light Drizzle
7:55 PM 35.6 °F 28.6 °F 35.6 °F 100% 29.99 in 7.0 mi NNE 9.2 mph 16.1 mph N/A   Overcast
8:15 PM 35.6 °F 27.5 °F 35.6 °F 100% 29.99 in 7.0 mi NE 11.5 mph 17.3 mph N/A   Drizzle
8:35 PM 35.6 °F 27.5 °F 35.6 °F 100% 29.99 in 4.0 mi NE 11.5 mph 16.1 mph N/A Rain Rain
8:55 PM 35.6 °F 29.2 °F 35.6 °F 100% 29.99 in 5.0 mi NE 8.1 mph - N/A Rain Rain
9:15 PM 35.6 °F 28.6 °F 35.6 °F 100% 29.98 in 7.0 mi NNE 9.2 mph 17.3 mph N/A   Drizzle
9:35 PM 35.6 °F 28.0 °F 35.6 °F 100% 29.97 in 7.0 mi NNE 10.4 mph 16.1 mph N/A   Drizzle
9:55 PM 35.6 °F 29.2 °F 35.6 °F 100% 29.97 in 7.0 mi NE 8.1 mph - N/A   Drizzle
10:15 PM 35.6 °F 29.2 °F 35.6 °F 100% 29.96 in 7.0 mi NNE 8.1 mph - N/A   Overcast
10:35 PM 35.6 °F 28.6 °F 35.6 °F 100% 29.97 in 10.0 mi NNE 9.2 mph - N/A   Overcast
10:55 PM 37.4 °F 30.8 °F 35.6 °F 93% 29.96 in 7.0 mi NNE 9.2 mph - N/A   Overcast
11:15 PM 37.4 °F 30.8 °F 35.6 °F 93% 29.96 in 7.0 mi NNE 9.2 mph - N/A   Light Drizzle
11:35 PM 37.4 °F 31.4 °F 35.6 °F 93% 29.96 in 5.0 mi NE 8.1 mph - N/A   Drizzle
11:55 PM 37.4 °F 32.8 °F 35.6 °F 93% 29.96 in 7.0 mi NNE 5.8 mph - N/A   Light Drizzle